Camarillo, CA

4:25 PM PDT on July 25, 2017 (GMT -0700)
Camarillo

Weather History for KCMA - October, 2012

Change the Weather History Date:

Friday, October 26, 2012

  Actual Average Record
Temperature  
Mean Temperature 75 °F 62 °F  
Max Temperature 84 °F 73 °F 93 °F (1983)
Min Temperature 66 °F 51 °F 40 °F (1954)
Degree Days  
Heating Degree Days 0 4  
Month to date heating degree days 25 71  
Since 1 July heating degree days 60 103  
Cooling Degree Days 10 1  
Month to date cooling degree days 64 26  
Year to date cooling degree days 355 309  
Growing Degree Days 26 (Base 50)    
Moisture  
Dew Point 24 °F    
Average Humidity 20    
Maximum Humidity 31    
Minimum Humidity 9    
Precipitation  
Precipitation 0.00 in 0.04 in 1.02 in (2004)
Month to date precipitation T 0.46  
Year to date precipitation 5.72 11.68  
Since 1 July precipitation 0.04  
Sea Level Pressure  
Sea Level Pressure 30.00 in    
Wind  
Wind Speed 18 mph (ENE)    
Max Wind Speed 33 mph    
Max Gust Speed 40 mph    
Visibility 10 miles    
Events Rain    
T = Trace of Precipitation, MM = Missing Value Source: NWS Daily Summary

Daily Weather History Graph

Daily Weather History Graph

Search for Another Location

Airport or City:

Trip Planner

Search our weather history database for the weather conditions in past years. The results will help you decide how hot, cold, wet, or windy it might be!

Date:

Astronomy

Oct. 26, 2012 Rise Set
Actual Time 7:11 AM PDT 6:08 PM PDT
Civil Twilight 6:45 AM PDT 6:34 PM PDT
Nautical Twilight 6:16 AM PDT 7:03 PM PDT
Astronomical Twilight 5:47 AM PDT 7:32 PM PDT
Moon 4:21 PM PDT (10/26) 4:18 AM PDT (10/26)
Length of Visible Light 11h 48m
Length of Day
10h 57m
Waxing Gibbous, 91% of the Moon is Illuminated
Oct 26
Waxing Gibbous
Oct 29
Full
Nov 6
Last Quarter
Nov 13
New
Nov 20
First Quarter

Hourly Weather History & Observations

Time (PDT) Temp. Dew Point Humidity Pressure Visibility Wind Dir Wind Speed Gust Speed Precip Events Conditions
12:55 AM 71.1 °F 30.0 °F 22% 30.01 in 10.0 mi ENE 11.5 mph - N/A   Clear
1:55 AM 68.0 °F 32.0 °F 26% 30.01 in 10.0 mi East 12.7 mph - N/A   Clear
2:55 AM 72.0 °F 27.0 °F 19% 29.99 in 10.0 mi ENE 17.3 mph 29.9 mph N/A   Clear
3:55 AM 72.0 °F 27.0 °F 19% 30.00 in 10.0 mi ENE 19.6 mph 28.8 mph N/A   Clear
4:55 AM 71.1 °F 26.1 °F 19% 30.00 in 10.0 mi ENE 20.7 mph 28.8 mph N/A   Clear
5:55 AM 72.0 °F 25.0 °F 17% 30.01 in 10.0 mi ENE 25.3 mph 36.8 mph 0.00 in Rain Light Rain
6:55 AM 71.1 °F 24.1 °F 17% 30.03 in 10.0 mi ENE 26.5 mph 35.7 mph 0.00 in   Clear
7:55 AM 71.1 °F 23.0 °F 16% 30.04 in 10.0 mi ENE 28.8 mph 39.1 mph N/A   Clear
8:55 AM 73.0 °F 23.0 °F 15% 30.06 in 10.0 mi ENE 21.9 mph 35.7 mph N/A   Clear
9:55 AM 75.0 °F 23.0 °F 14% 30.07 in 10.0 mi ENE 26.5 mph 34.5 mph N/A   Clear
10:55 AM 78.1 °F 23.0 °F 13% 30.07 in 10.0 mi ENE 26.5 mph 40.3 mph N/A   Clear
11:55 AM 80.1 °F 21.9 °F 12% 30.05 in 10.0 mi NE 24.2 mph 39.1 mph N/A   Clear
12:55 PM 82.0 °F 21.9 °F 11% 30.02 in 10.0 mi ENE 26.5 mph 34.5 mph N/A   Clear
1:55 PM 82.9 °F 21.9 °F 11% 29.99 in 10.0 mi ENE 23.0 mph 29.9 mph N/A   Clear
2:55 PM 84.0 °F 21.9 °F 10% 29.97 in 10.0 mi NE 19.6 mph 28.8 mph N/A   Clear
3:55 PM 84.0 °F 21.9 °F 10% 29.96 in 10.0 mi ENE 17.3 mph 25.3 mph N/A   Clear
4:55 PM 77.0 °F 37.9 °F 24% 29.96 in 10.0 mi West 13.8 mph - N/A   Clear
5:55 PM 73.0 °F 37.0 °F 27% 29.97 in 10.0 mi WNW 6.9 mph - N/A   Clear
7:55 PM 69.1 °F 28.0 °F 22% 29.99 in 10.0 mi NE 8.1 mph - N/A   Clear
8:55 PM 73.9 °F 18.0 °F 12% 29.97 in 10.0 mi NE 16.1 mph 25.3 mph N/A   Clear
9:55 PM 73.9 °F 14.0 °F 10% 29.97 in 10.0 mi ENE 16.1 mph - N/A   Clear
10:55 PM 73.9 °F 12.0 °F 9% 29.97 in 10.0 mi ENE 10.4 mph - N/A   Clear
11:55 PM 72.0 °F 12.9 °F 10% 29.96 in 10.0 mi ENE 12.7 mph - N/A   Clear